Regional Weather Roundup
Issued by NWS

Home | Current Version | Previous Version | Text Only | Print | Product List | Glossary On
Versions: 1 2 3 4 5 6 7 8 9 10 11 12 13 14 15 16 17 18 19 20 21 22 23 24 25 26 27 28 29 30 31 32 33 34 35 36 37 38 39 40 41 42 43 44 45 46 47 48 49 50
000
ASUS45 KTFX 050819
RWRMT
MONTANA HOURLY WEATHER ROUNDUP
NATIONAL WEATHER SERVICE GREAT FALLS MT
119 AM MST THU MAR 5 2015

NOTE: "FAIR" INDICATES FEW OR NO CLOUDS BELOW 12000 FEET WITH NO
SIGNIFICANT WEATHER AND/OR OBSTRUCTIONS TO VISIBILITY.

* THESE STATIONS ARE NOT UNDER NWS QUALITY CONTROL. THEY DO NOT
   REPORT WEATHER SUCH AS PRECIPITATION OR FOG.

MTZ001>007-043-050900-
WEST OF THE DIVIDE
CITY           SKY/WX    TMP DP  RH WIND       PRES   REMARKS
KALISPELL      PTCLDY    19  18  96 CALM      30.23S
MISSOULA       PTCLDY    23  14  68 E5        30.27S WCI  16
BUTTE          MOCLDY    23  10  57 CALM      30.15S
MULLAN PASS    PTCLDY    21   0  40 SW7       30.16S WCI  12
* ANACONDA     CLEAR     28   9  45 N9         N/A   WCI  19
* ESSEX        N/A       14   9  80 N/A        N/A
* EUREKA APT   CLEAR     19  10  68 CALM      30.26R
* HAMILTON APT CLEAR     30  12  47 S7        30.25S WCI  23
* LIBBY APT    PTCLDY    19  16  88 CALM      30.27R
* LINCOLN      N/A       27   8  44 S4G11      N/A
* LOOKOUT PASS N/A       21   9  60 N/A        N/A
* POLSON       N/A       26  10  51 SE1        N/A
* RONAN APT    PTCLDY    28  16  61 N/A        N/A
* SEELEY LAKE  N/A       11   4  73 NE1        N/A
* THOMP F APT  PTCLDY    16   5  62 N3         N/A
$$

MTZ008-052>055-050900-
SOUTHWEST MONTANA
CITY           SKY/WX    TMP DP  RH WIND       PRES   REMARKS
BOZEMAN        PTCLDY    18  10  71 S6        30.15S WCI  10
DILLON         MOCLDY    28   9  45 S12       30.16S WCI  18
* W YELLOWSTON CLEAR      7  -2  66 SE1G6      N/A
* THREE FORKS  PTCLDY    19   9  65 N/A        N/A
* BOULDER HILL N/A       27   3  35 S2         N/A
* MONIDA PASS  N/A       14   6  70 SE13       N/A
* RAYNOLDS PAS N/A        8  -7  50 SE12       N/A   WCI  -7
* WHITEHALL    N/A       33   5  30 W12G18     N/A   WCI  24
* WISE RIVER   N/A       30   6  36 W12G18     N/A   WCI  20
$$

MTZ009>010-012-014-046-048-049-054-050900-
EAST SLOPES AND CENTRAL MONTANA
CITY           SKY/WX    TMP DP  RH WIND       PRES   REMARKS
CUT BANK       PTCLDY    28  10  47 W24G31    30.00R WCI  14
GREAT FALLS    CLEAR     27  14  58 SW14      30.04S WCI  16
HELENA         PTCLDY    36  10  34 W8        30.14R WCI  30
MALMSTROM AFB  CLEAR     25  16  69 SW15      30.06R WCI  13
* CONRAD       CLEAR     27  16  63 S9         N/A   WCI  18
* DEARBORN     N/A       30  12  47 SW3        N/A
* EAST GLACIER N/A       29   6  37 W24G33     N/A   WCI  15
* MONARCH      N/A       24   4  42 SW12G17    N/A   WCI  13
* PENDROY      N/A       28  12  51 W16        N/A   WCI  16
* ROGERS PASS  N/A       23   8  52 SE6G19     N/A   WCI  16
* SWEET GRASS  N/A       29  11  47 W20G25     N/A   WCI  16
* WHITE SULPH  N/A       23   8  52 N4G12      N/A
$$

MTZ011-013-016-021-035-040-045-047-050-051-050900-
NORTH CENTRAL MONTANA
CITY           SKY/WX    TMP DP  RH WIND       PRES   REMARKS
HAVRE          MOCLDY    27  14  58 SW15      30.00R WCI  15
LEWISTOWN      PTCLDY    19   9  65 SW12      30.03R WCI   6
* N BAR RANCH  CLEAR     16   3  56 CALM      30.01F
* CHINOOK      MOCLDY    12   3  67 S3        30.02R
* FORT BENTON  PTCLDY    28  16  61 SW8       30.05S WCI  20
* CHESTER      N/A       22  10  60 SW4        N/A
* DENTON       N/A       23  12  63 W9         N/A   WCI  13
* GEYSER       N/A       29  11  47 SW19G24    N/A   WCI  16
* JUDITH GAP   N/A       21   6  52 N/A        N/A
* LOMA         N/A       25  13  60 SW6        N/A   WCI  18
$$

MTZ017>020-022>027-061-062-050900-
NORTHEAST MONTANA
CITY           SKY/WX    TMP DP  RH WIND       PRES   REMARKS
GLASGOW        CLOUDY    12   0  58 SE14      30.03F WCI  -4
GLENDIVE       FAIR       5  -2  72 S9        30.11F WCI  -9
JORDAN         CLEAR     16   7  67 VRB3      30.04F
SIDNEY         PTCLDY     0   0 100 CALM      30.17F
WOLF POINT     CLEAR      3  -2  79 NE5       30.11F WCI  -7
* BEAVER HILL  N/A       11  -3  53 S17        N/A   WCI  -6
* CIRCLE       N/A       15   2  56 SW7        N/A   WCI   5
* LINDSAY DVD  N/A       10  -3  55 S10G17     N/A   WCI  -4
* NAVAJO       N/A        8  -5  55 S11G16     N/A   WCI  -7
* PLENTYWOOD A CLEAR      0  -9  65 E8        30.10F WCI -14
* POPLAR APT   CLEAR      0  -6  75 N3        30.12F
* SACO         N/A       11   1  64 NE11       N/A   WCI  -3
* SCOBEY APT   CLEAR      7  -9  47 N/A        N/A
$$

MTZ028>042-056>058-050900-
SOUTHCENTRAL AND SOUTHEAST MONTANA
CITY           SKY/WX    TMP DP  RH WIND       PRES   REMARKS
BAKER          CLEAR      5  -2  72 E5        30.12F WCI  -5
BILLINGS       PTCLDY    21   3  45 SW23      30.07R WCI   5
LIVINGSTON     MOCLDY    32   9  38 SW25G32   30.08S WCI  19
MILES CITY     CLEAR     10   0  64 N/A       30.10F
* BIG TIMBER A PTCLDY    34   7  32 W28G38    30.03R WCI  21
* FORSYTH APT  CLEAR     16   7  67 CALM      30.09F
* LAUREL APT   PTCLDY    21   1  41 SW10       N/A   WCI  10
* ROUNDUP APT  CLEAR     21   3  45 S14        N/A   WCI   8
* HYSHAM       N/A       18   2  49 W6         N/A   WCI  10
* REED POINT   N/A       18   8  65 SE4        N/A
* ROSCOE HILL  N/A       17  -4  39 E8         N/A   WCI   7
$$

REGIONAL REPORTS...DAKOTAS
CITY           SKY/WX    TMP DP  RH WIND       PRES   REMARKS
WILLISTON      CLEAR      1  -9  62 S5        30.17F WCI  -9
DICKINSON      PTCLDY     0  -8  68 S12       30.13F WCI -17
BEACH          CLEAR      1  -2  87 S9        30.13F WCI -14
CROSBY         CLEAR     -6 -13  71 S16       30.15F WCI -28
TIOGA          CLEAR    -13 -17  82 CALM      30.17F
WATFORD CITY   CLEAR     -2  -9  72 SE3       30.15F
BISMARCK       PTCLDY    -6 -11  78 CALM      30.32F
GRAND FORKS    CLEAR    -15 -20  77 SW7       30.40R WCI -31
FARGO          CLEAR     -8 -15  71 SW7       30.43S WCI -23
BUFFALO SD     PTCLDY     3  -6  66 S10       30.07F WCI -12
RAPID CITY     CLEAR      7   0  73 S7        30.20F WCI  -5
$$

REGIONAL REPORTS...WYOMING/IDAHO/WASHINGTON
CITY           SKY/WX    TMP DP  RH WIND       PRES   REMARKS
GILLETTE       CLEAR     18   0  45 SW12      30.08S WCI   5
SHERIDAN       PTCLDY     0  -9  65 CALM      30.08F
CODY           CLEAR     21   9  60 W8        30.06R WCI  11
YELLOWSTONE LA PTCLDY    -6  -9  87 CALM      30.20S
SALMON         CLEAR     18   9  68 CALM      30.29R
MULLAN PASS    PTCLDY    21   0  40 SW7       30.16S WCI  12
SAND POINT     PTCLDY    27  21  78 CALM      30.28S
SPOKANE        PTCLDY    32  16  52 SE7       30.25S WCI  25
$$

REGIONAL REPORTS...ALBERTA
CITY           SKY/WX    TMP DP  RH WIND       PRES   REMARKS
CALGARY        FAIR      28   7  41 VRB2      29.96R
LETHBRIDGE     FAIR      32  12  43 W23G33    30.00R WCI  19
MEDICINE HAT   CLEAR     18  14  84 SW10      29.99R WCI   6
EDMONTON       PTCLDY    16   3  56 W5        29.92R WCI   8
WATERTON GATE  N/A       28   9  45 SW28G38    N/A   WCI  13
CARDSTON       N/A       34  14  44 W16G22     N/A   WCI  24
MILK RIVER     N/A       23  14  68 W15        N/A   WCI  10
$$

REGIONAL REPORTS...SASKATCHEWAN
CITY           SKY/WX    TMP DP  RH WIND       PRES   REMARKS
SWIFT CURRENT  CLEAR     10   1  67 SW15      29.93F WCI  -7
REGINA         FAIR     -13 -20  70 SE14      30.08F WCI -35
VAL MARIE      N/A       12   3  67 SE2        N/A
ASSINIBOIA     N/A        7  -2  66 S5         N/A   WCI  -2
CORONACH       N/A        5  -4  66 E6         N/A   WCI  -6

$$



USA.gov is the U.S. government's official web portal to all federal, state and local government web resources and services.